Regional Weather Roundup
Issued by NWS Jackson, KY

Home | Current Version | Previous Version | Text Only | Print | Product List | Glossary On
Versions: 1 2 3 4 5 6 7 8 9 10 11 12 13 14 15 16 17 18 19 20 21 22 23 24 25 26 27 28 29 30 31 32 33 34 35 36 37 38 39 40 41 42 43 44 45 46 47 48 49 50
000
ASUS43 KJKL 050210
RWRJKL

EAST KENTUCKY HOURLY WEATHER ROUNDUP
NATIONAL WEATHER SERVICE JACKSON KY
900 PM EST WED MAR 04 2015

NOTE: "FAIR" INDICATES FEW OR NO CLOUDS BELOW 12,000 FEET WITH
NO SIGNIFICANT WEATHER AND/OR OBSTRUCTIONS TO VISIBILITY.

* THESE REPORTS ARE NOT UNDER NWS QUALITY CONTROL AND MAY NOT
  REPORT WEATHER SUCH AS PRECIPITATION AND FOG.

KYZ079-080-083-085-087-088-110-112-115-119-120-050300
...EASTERN KENTUCKY...

CITY           SKY/WX    TMP DP  RH WIND       PRES   REMARKS
JACKSON        LGT RAIN  35  33  92 N5        30.05R WCI  31
LONDON         LGT RAIN  36  32  85 N10       30.03F WCI  28
SOMERSET*      CLOUDY    34  34 100 N6        30.08F WCI  29
MONTICELLO*    FLURRIES  36  34  92 NE8       30.10R WCI  30
MIDDLESBORO*   RAIN      42  40  91 N9        30.00R
HAZARD APT*    LGT RAIN  37  37 100 N6        30.04R WCI  33
BLACK MTN*       N/A     30  36 100 VRB14       N/A  WCI  20
PIKEVILLE APT* LGT RAIN  36  34  93 N13G18    30.02R WCI  27
BIG SANDY*     LGT RAIN  35  34  95 N12       30.04F WCI  27
MOREHEAD APT*  SNOW      32  32 100 VRB6      30.12R VSB 1/4 WCI  26
$$

KYZ035-036-041-042-044-050-067-078-099-050300
...CENTRAL KENTUCKY...

CITY           SKY/WX    TMP DP  RH WIND       PRES   REMARKS
MT STERLING*   SNOW      32  32 100 N5        30.11S VSB 1/2 WCI  27
FLEMING/MASON* SNOW      30  30 100 N7        30.12R VSB 1/2 WCI  23
DANVILLE*      LGT SNOW  32  32 100 N10       30.09F WCI  24
RICHMOND*      CLOUDY    32  32 100 N9G16     30.08S WCI  24
LEXINGTON      SNOW      29  28  96 N10       30.11S VSB 1/2 WCI  20
FRANKFORT      LGT SNOW  28  26  92 N12       30.13R VSB 3/4 WCI  18
$$

KYZ091>093-OHZ055-061-077-WVZ005-015-034-035-042-050300
...SOUTHERN OHIO/WEST VIRGINIA...

CITY           SKY/WX    TMP DP  RH WIND       PRES   REMARKS
COVINGTON      LGT SNOW  26  23  88 NW17      30.15R VSB 3/4 WCI  13
COLUMBUS       LGT SNOW  27  25  93 NW15      30.11R FOG     WCI  15
DAYTON         CLOUDY    25  15  66 NW16      30.15R WCI  12
WILMINGTON     LGT SNOW  27  24  89 N9        30.12R VSB 3/4 WCI  18
HUNTINGTON     LGT SNOW  32  32 100 N7        30.08R VSB 1   WCI  26
CHARLESTON     LGT SNOW  33  31  92 NW12      30.06R FOG     WCI  24
PINEVILLE*     LGT SNOW  42  42 100 MISG      30.01R
BECKLEY        RAIN      37  37 100 N9        29.97R WCI  30
BLUEFIELD      RAIN      47  43  86 NW5       29.92S FOG
$$

VAZ002-007-008-TNZ017-027-036-066-071-050300
...SOUTHWEST VIRGINIA/EAST TENNESSEE...

CITY           SKY/WX    TMP DP  RH WIND       PRES   REMARKS
WISE*          LGT RAIN  41  41 100 N12       29.95R
JONESVILLE*    LGT RAIN  41  41 100 N7        29.97R
ABINGDON*      CLOUDY    51  50  95 CALM      29.89R
BRISTOL        CLOUDY    53  47  79 N9        29.88S
KNOXVILLE      LGT RAIN  49  45  86 N14G22    29.92R
OAK RIDGE      CLOUDY    48  45  89 VRB5      29.95R
CROSSVILLE     RAIN      37  35  92 N10       29.99R FOG     WCI  30
NASHVILLE      DRIZZLE   33  31  92 N13       30.10R WCI  24
$$

...KEY TO REMARKS...
VSB - VISIBILITY IN MILES
WCI - WIND CHILL INDEX
HX  - HEAT INDEX

$$



USA.gov is the U.S. government's official web portal to all federal, state and local government web resources and services.